CST,Max TemperatureF,Mean TemperatureF,Min TemperatureF,Max Dew PointF,MeanDew PointF,Min DewpointF,Max Humidity, Mean Humidity, Min Humidity, Max Sea Level PressureIn, Mean Sea Level PressureIn, Min Sea Level PressureIn, Max VisibilityMiles, Mean VisibilityMiles, Min VisibilityMiles, Max Wind SpeedMPH, Mean Wind SpeedMPH, Max Gust SpeedMPH,PrecipitationIn, CloudCover, Events, WindDirDegrees
2011-11-1,66,58,50,46,41,34,82,57,40,29.93,29.86,29.83,10,10,10,24,13,32,0.00,0,,233
2011-11-2,50,42,35,39,35,30,100,83,57,30.32,30.14,29.94,10,9,3,28,19,40,0.12,8,Rain-Snow-Thunderstorm,7
2011-11-3,51,39,27,27,23,19,82,59,29,30.42,30.33,30.28,10,10,10,14,10,20,0.00,0,,323
2011-11-4,55,42,28,32,25,21,79,56,29,30.28,30.14,29.98,10,10,10,21,8,29,0.01,0,,160
2011-11-5,63,52,41,41,35,30,73,56,32,29.96,29.75,29.59,10,10,10,33,18,46,0.00,0,,160
2011-11-6,59,48,39,42,31,25,82,53,29,30.09,29.89,29.58,10,10,10,31,15,43,0.00,0,,254
2011-11-7,53,40,28,43,36,23,100,80,40,30.16,30.06,29.99,10,7,2,22,8,30,0.61,6,Rain,41
2011-11-8,42,40,37,43,39,31,100,91,73,30.15,30.02,29.95,10,8,2,26,15,36,0.24,8,Rain,24
2011-11-9,52,41,30,29,24,20,82,60,31,30.38,30.31,30.17,10,10,10,22,10,30,0.00,0,,301
2011-11-10,51,38,26,31,24,17,81,60,31,30.38,30.24,29.98,10,10,10,9,6,,0.00,0,,221
2011-11-11,62,49,36,35,29,26,71,53,31,29.94,29.83,29.71,10,10,10,15,10,,0.00,0,,234
2011-11-12,59,48,37,40,36,33,93,63,41,29.70,29.50,29.30,10,10,9,26,12,36,0.00,0,,190
2011-11-13,63,52,42,40,30,24,68,47,26,29.60,29.51,29.28,10,10,10,17,12,25,0.00,0,,252
2011-11-14,60,48,37,33,30,26,77,52,28,29.76,29.68,29.53,10,10,10,17,8,25,0.00,0,,245
2011-11-15,57,46,35,31,26,18,70,47,28,30.08,29.84,29.68,10,10,10,15,10,22,0.00,0,,321
2011-11-16,37,32,26,31,25,16,93,77,46,30.41,30.30,30.09,10,7,1,14,7,21,0.01,5,Snow,304
2011-11-17,50,36,23,29,23,18,88,63,31,30.41,30.19,29.90,10,10,10,23,12,34,0.00,0,,210
2011-11-18,61,49,37,41,33,25,80,59,38,29.87,29.71,29.57,10,10,10,30,18,36,0.00,0,,183
2011-11-19,51,38,26,48,34,21,96,85,74,30.20,29.74,29.43,10,9,2,24,13,32,0.00,6,,337
2011-11-20,36,28,21,22,19,17,86,75,57,30.35,30.27,30.21,10,10,10,16,10,23,0.00,3,,28
2011-11-21,37,30,23,34,27,19,93,82,70,30.27,30.17,30.07,10,9,7,6,2,,0.00,7,,56
2011-11-22,48,40,32,34,33,30,100,86,56,30.15,30.08,30.04,10,5,0,9,3,,0.19,5,Fog-Rain,315
2011-11-23,63,49,35,36,32,26,76,57,31,30.19,30.14,30.08,10,10,10,16,6,,0.00,0,,221
2011-11-24,71,57,43,48,41,37,83,63,29,30.06,29.94,29.81,10,10,10,31,18,46,0.00,0,,190
2011-11-25,63,54,46,48,45,36,93,77,52,29.81,29.72,29.64,10,8,4,22,16,31,0.00,3,Rain,195
2011-11-26,51,42,33,48,23,8,93,46,26,30.34,30.09,29.72,10,10,10,33,17,45,0.00,3,,334
2011-11-27,45,34,23,15,5,-1,53,34,15,30.39,30.31,30.19,10,10,10,17,11,23,0.00,0,,318
2011-11-28,50,34,19,27,13,6,71,43,23,30.21,30.14,30.05,10,10,10,13,3,,0.00,0,,178
2011-11-29,49,38,27,30,18,6,85,52,18,30.40,30.30,30.21,10,10,10,17,8,23,0.00,0,,350
2011-11-30,56,43,30,27,21,11,59,46,32,30.20,30.00,29.86,10,10,10,29,14,37,0.00,0,,172